Temperature
23 23 23 23 21 19 22 23 23 24 23 23 24 23 22 21 22 21 21 21 21 20 20 19 19 19 19 19 19 19 19 19 19 19 19 19 19 19 19 19 19 19 19 19 19 19 19 19 18
23 23 23 23 19 20 22 23 23 24 24 24 23 22 21 20 21 21 20 20 20 20 20 19 19 19 19 19 19 19 19 19 19 18 18 18 18 19 19 19 19 19 19 19 18 18 18 18 18
23 23 23 19 21 21 23 24 24 24 24 24 23 22 21 21 21 21 21 20 20 20 20 19 19 19 19 19 19 19 19 18 18 18 18 18 18 18 19 19 19 19 18 18 18 18 18 18 18
23 23 23 20 23 22 23 24 23 24 24 24 23 21 21 21 21 21 20 20 20 20 19 19 19 19 19 19 19 18 18 18 18 18 18 18 18 18 18 19 19 18 18 18 18 18 18 18 18
23 23 20 21 22 22 23 24 24 24 24 23 22 21 21 21 21 21 20 20 20 20 19 19 19 19 19 19 18 18 18 18 18 18 18 18 18 18 18 18 19 18 18 18 18 18 18 18 18
24 20 20 21 21 22 23 25 25 24 23 23 22 21 20 21 21 20 20 20 20 20 20 19 19 19 19 18 18 18 18 18 18 18 18 18 18 18 18 18 18 18 18 18 17 17 18 18 18
22 19 20 21 21 22 24 25 25 23 23 23 23 20 20 20 20 20 20 19 19 19 20 19 19 19 19 18 18 18 18 18 18 18 18 18 18 18 18 18 18 18 18 18 17 17 17 17 17
23 19 21 21 22 23 24 25 25 25 24 23 23 21 20 21 20 20 19 19 19 19 19 20 19 19 19 19 18 18 18 18 18 18 18 18 18 18 18 18 18 18 18 18 17 17 17 17 17
23 19 21 22 22 23 24 25 25 25 24 23 23 24 23 21 20 20 19 19 19 19 19 20 20 19 19 19 19 18 18 18 18 18 18 18 18 18 18 18 18 18 18 17 17 17 17 17 17
22 20 22 22 22 23 23 24 25 25 23 23 23 23 23 22 21 20 20 20 20 20 20 20 20 20 19 19 19 19 18 18 18 18 18 18 18 18 18 18 18 18 17 17 17 17 17 17 17
22 21 22 22 23 23 23 25 25 24 23 24 24 24 23 22 21 21 21 21 21 20 20 20 20 20 19 19 19 19 19 19 18 18 18 18 18 18 18 18 18 17 17 17 17 17 16 17 17
22 22 22 23 24 24 24 25 25 25 26 26 26 26 24 23 22 22 22 21 21 21 20 20 20 20 20 19 19 19 19 19 19 19 18 18 18 18 18 18 18 17 17 17 17 17 17 17 17
22 23 23 24 24 24 24 24 25 25 26 26 26 25 24 24 23 23 23 22 21 21 21 20 20 20 20 20 20 19 19 19 19 19 18 18 18 18 18 18 17 17 17 17 17 17 17 17 17
22 23 23 23 23 23 23 24 24 23 25 25 25 24 24 24 24 23 22 22 22 22 21 21 21 20 20 20 20 20 20 19 19 19 18 18 18 18 18 18 17 17 17 17 17 17 17 17 17
23 22 22 21 22 22 23 23 21 22 23 23 23 23 23 23 23 23 23 23 23 23 22 22 21 21 21 20 20 20 20 19 19 19 18 18 18 17 17 18 17 17 17 17 17 17 17 17 17
21 21 21 21 21 21 23 22 21 22 22 22 22 22 22 22 23 23 23 23 23 23 23 22 22 21 21 21 21 20 20 20 19 19 18 18 18 17 17 17 17 17 17 17 17 17 17 17 17
19 20 20 21 21 20 21 21 21 21 21 20 21 21 22 22 22 23 23 23 23 23 23 23 22 22 22 21 21 20 20 20 19 19 18 18 18 17 17 17 17 17 17 17 17 17 17 17 16
20 20 20 20 20 20 20 20 19 20 19 19 19 20 20 21 22 23 23 23 23 23 23 23 23 22 22 21 20 20 20 20 19 19 19 18 18 18 17 17 17 17 17 17 17 17 16 16 16
20 19 19 19 20 20 19 18 18 18 17 17 17 18 18 20 21 22 23 23 23 23 23 23 23 22 22 21 21 20 20 20 19 19 19 18 18 18 18 17 17 17 17 17 17 17 16 16 16
19 19 19 19 19 20 18 17 17 17 16 16 16 16 16 18 20 22 23 23 23 24 24 24 23 23 22 22 21 21 20 20 19 19 19 18 18 18 18 17 17 17 17 17 17 17 16 16 16
19 18 19 19 18 18 18 17 16 16 16 16 16 15 15 16 18 21 22 23 23 24 24 24 23 23 22 22 21 20 20 20 19 19 19 18 18 18 17 17 17 17 17 17 17 17 16 16 16
17 18 18 18 17 16 17 16 16 14 14 15 15 15 15 15 17 19 21 22 22 23 23 23 22 22 22 21 20 20 20 20 19 19 18 18 18 17 17 17 17 17 17 17 16 16 16 16 16
18 17 17 17 16 15 15 15 14 13 13 14 15 15 14 15 16 18 19 20 21 21 21 21 21 20 20 20 20 19 19 19 19 18 18 18 17 17 17 17 17 17 16 16 16 16 16 16 16
17 16 15 13 14 15 16 15 14 13 13 14 14 14 14 14 16 17 18 19 19 20 20 20 19 19 19 19 19 18 18 18 18 18 18 17 17 17 17 17 16 16 16 16 16 16 16 16 15
15 14 14 14 13 14 15 14 14 14 14 14 14 14 14 14 15 16 16 17 17 17 18 18 18 18 18 18 18 18 18 18 18 17 17 17 17 17 17 16 16 16 16 16 16 16 16 15 15
15 14 14 14 14 14 15 14 14 14 14 14 14 14 14 14 14 15 15 16 16 16 17 17 17 17 17 17 18 18 18 18 18 17 17 17 17 16 16 16 16 16 16 16 16 15 15 15 15
14 13 13 13 13 13 14 14 14 14 13 13 13 13 13 13 14 14 15 15 16 16 16 16 16 17 17 17 18 18 18 18 17 17 17 17 16 16 16 16 16 16 16 15 15 15 15 15 15
13 12 11 12 12 13 13 13 12 12 12 12 13 13 13 13 14 14 15 15 16 16 16 16 16 17 17 18 18 18 18 17 17 17 17 16 16 16 16 16 16 16 16 15 15 15 15 15 14
12 11 11 10 11 12 13 13 12 11 12 12 12 12 12 12 13 14 14 15 15 16 16 16 17 17 17 17 18 18 18 17 17 17 16 16 16 16 16 16 16 16 16 15 15 15 15 14 14
12 11 10 10 11 11 12 12 12 11 11 12 12 12 12 12 13 14 14 15 15 16 16 17 17 17 17 17 17 17 17 17 17 17 16 16 16 16 16 15 15 15 15 15 15 15 14 14 14
Wind_Speed
5 2 3 4 6 6 3 3 2 1 3 3 3 7 8 5 2 2 3 10 10 11 11 14 14 13 12 12 12 12 12 12 13 13 13 12 11 11 10 10 10 10 9 9 9 9 9 9 8
1 1 4 5 6 4 3 3 2 2 5 5 5 5 5 4 3 6 5 7 11 12 11 13 14 13 12 12 12 12 12 12 12 12 12 12 11 10 10 9 9 9 9 9 9 9 9 9 8
1 2 4 5 4 4 3 2 3 2 4 2 4 5 4 4 5 6 6 11 11 9 11 13 15 14 13 12 12 11 11 11 11 11 11 11 10 9 9 9 8 8 8 9 9 9 9 9 8
3 4 5 5 2 3 4 2 4 6 2 4 4 5 3 2 7 6 11 13 12 9 10 13 15 14 13 12 12 11 11 11 11 11 11 11 10 9 8 8 7 7 7 8 8 9 9 9 8
4 5 6 4 4 5 4 3 6 5 3 3 4 4 3 4 7 12 13 13 12 9 9 12 15 14 13 12 12 11 11 11 11 11 11 11 10 9 8 7 6 6 6 6 7 8 9 9 8
4 5 5 2 7 7 4 2 5 5 4 4 5 4 2 3 8 12 12 10 10 10 9 12 15 14 13 13 12 11 11 11 11 11 11 11 10 9 8 7 6 5 5 5 6 8 8 9 8
4 5 4 1 4 6 4 1 5 6 5 5 6 5 2 3 6 10 9 8 8 8 7 8 12 13 14 13 12 12 11 11 11 11 11 10 9 8 8 6 5 4 3 4 5 7 8 8 8
5 5 4 1 1 4 4 1 2 6 5 5 5 8 6 7 8 8 7 7 7 7 7 6 8 10 11 12 13 13 12 11 11 11 11 10 9 8 7 6 5 4 3 3 4 6 7 7 7
4 5 2 3 2 4 3 2 1 3 7 4 4 6 6 12 11 9 6 5 6 7 6 7 6 8 9 10 12 13 13 12 12 11 11 10 8 6 6 6 6 5 3 2 3 5 6 7 7
4 4 5 4 4 3 4 1 2 4 4 3 3 4 9 14 13 12 9 10 10 10 9 7 7 7 8 9 9 9 10 11 10 10 10 9 8 6 5 5 6 5 3 2 3 4 6 6 6
3 5 4 3 4 3 4 3 2 8 5 8 9 11 14 13 14 13 13 11 11 9 10 10 8 7 7 5 7 7 8 9 9 10 10 9 7 5 4 2 1 1 2 3 4 5 4 4 4
1 2 2 3 2 2 3 3 0 5 6 7 12 18 17 17 17 17 15 13 9 9 10 10 10 8 7 6 5 6 5 6 7 9 11 9 5 4 3 3 2 1 1 2 3 3 2 2 4
0 2 2 4 4 4 4 4 2 3 8 2 11 14 18 18 17 15 13 11 10 11 11 11 11 9 7 6 5 5 5 6 8 9 11 10 5 4 3 3 3 2 2 1 1 2 1 2 4
2 2 2 3 4 3 3 3 2 5 7 5 11 14 15 16 16 12 12 12 13 13 13 11 12 11 9 8 6 6 6 7 8 9 11 12 8 5 4 3 3 4 4 3 2 1 1 2 4
2 1 3 5 5 4 4 4 2 6 5 3 7 9 10 11 11 13 13 13 13 13 13 13 13 12 11 10 9 6 6 8 6 8 11 12 10 8 5 4 4 4 5 4 2 2 3 3 3
4 4 3 4 5 6 4 4 2 5 6 2 2 4 7 10 11 11 11 11 11 10 12 14 13 13 13 11 9 5 6 7 7 9 11 12 12 11 6 5 5 5 5 4 3 3 3 3 4
6 3 2 5 3 4 3 4 5 6 6 5 5 5 6 8 10 12 12 13 12 13 13 14 13 14 14 11 8 6 5 6 7 9 9 11 13 13 8 5 5 5 3 3 3 3 3 4 4
2 1 3 5 3 3 3 5 7 7 6 6 7 7 7 8 11 11 13 15 14 14 14 14 14 12 11 9 6 5 5 5 5 6 8 11 12 13 10 5 5 5 3 4 4 4 3 3 4
3 3 5 5 2 2 4 5 7 8 9 10 10 10 10 11 10 10 11 14 15 15 16 16 15 13 11 8 7 6 6 5 5 5 8 10 11 11 9 6 6 5 5 5 5 4 4 3 3
2 3 5 5 2 1 4 4 4 7 8 9 11 12 13 14 13 11 10 11 16 18 18 17 16 14 12 10 7 4 3 3 3 3 4 8 9 9 9 7 6 7 6 6 6 5 4 3 4
3 5 5 5 3 3 4 5 4 5 6 10 12 12 13 15 16 14 10 10 12 15 16 15 14 12 10 8 5 4 4 3 2 3 4 5 7 8 7 7 6 7 7 7 8 7 7 5 3
5 5 4 2 1 3 2 4 5 7 9 14 17 17 17 18 17 13 10 6 7 9 9 10 10 10 9 9 7 5 5 5 5 3 3 4 5 6 7 6 6 7 6 7 8 7 6 6 5
4 4 1 0 3 1 1 2 6 6 10 14 17 17 17 17 16 14 11 5 2 2 6 8 10 9 8 7 6 4 3 3 2 2 3 4 4 5 6 6 6 6 6 7 7 8 8 6 6
3 4 5 5 4 1 3 4 4 5 9 14 15 16 17 17 16 15 13 10 9 9 9 11 12 9 6 5 3 5 6 5 4 4 3 3 2 3 4 5 5 6 6 7 7 8 9 8 7
8 6 4 5 3 4 1 3 1 4 8 10 14 16 16 14 13 13 13 11 10 11 10 10 11 8 4 3 4 5 6 6 5 4 4 3 2 2 3 4 4 4 5 5 6 7 8 8 9
5 3 2 3 4 3 2 2 2 3 8 9 10 12 14 14 12 11 10 9 8 8 9 8 7 5 3 3 4 4 5 4 3 4 3 3 3 2 2 3 3 3 4 4 5 5 6 7 8
5 4 1 2 2 2 2 1 1 10 14 15 16 16 16 14 13 11 8 7 7 7 6 6 4 2 2 3 3 4 3 3 3 3 3 3 2 2 2 2 2 2 2 3 4 4 5 6 7
4 2 4 3 1 2 2 2 6 14 18 18 18 17 16 15 13 10 7 5 5 5 5 5 2 2 2 3 2 3 3 3 3 3 3 3 2 2 3 3 2 2 2 2 2 2 3 5 5
7 6 4 2 1 1 1 2 6 10 13 15 16 16 15 14 12 9 7 6 5 5 4 3 2 1 3 3 4 4 4 4 4 3 2 2 2 2 3 3 2 2 2 2 2 2 2 3 3
4 4 3 2 3 1 0 2 7 11 11 12 15 16 15 14 11 8 7 8 7 6 4 2 2 1 3 4 5 5 4 5 4 3 1 2 2 2 3 3 3 3 3 2 3 2 2 2 3
Wind_Direction
335 50 90 56 51 51 36 324 279 355 53 42 77 94 102 98 124 154 121 144 137 145 157 155 153 147 142 139 138 136 134 133 131 128 125 120 115 111 107 101 97 93 89 88 91 95 96 95 94
319 93 58 57 78 70 313 289 257 202 136 141 88 81 82 75 88 112 128 148 143 148 153 155 157 152 147 145 142 141 139 138 137 135 131 125 120 115 111 106 100 95 91 87 87 90 92 93 91
291 55 73 66 91 155 210 227 215 106 135 115 74 60 88 123 134 151 152 142 142 146 149 160 160 157 153 151 149 147 145 143 141 140 136 130 124 120 116 112 105 99 93 88 83 82 84 83 80
82 47 54 65 46 244 237 231 174 134 126 66 96 74 59 88 153 152 138 142 144 144 149 165 163 161 159 157 156 154 151 148 147 144 140 135 131 127 123 118 113 107 99 90 80 76 75 72 67
60 74 58 42 333 296 264 211 169 150 141 91 100 97 45 13 114 130 140 146 148 146 153 167 166 166 165 164 163 161 159 157 154 150 144 142 139 136 133 128 123 117 106 92 77 70 70 65 58
55 65 75 16 320 316 306 195 158 140 124 114 109 99 49 108 127 142 146 149 152 154 157 170 171 170 170 171 170 168 166 164 161 155 149 148 145 142 142 140 137 130 113 92 73 65 63 59 52
97 86 110 112 327 328 329 83 158 147 142 161 136 110 109 163 158 145 143 140 147 156 158 167 172 174 175 175 175 173 172 170 165 160 155 153 150 149 151 151 152 146 126 95 71 63 61 57 52
115 101 97 99 339 293 306 326 193 150 153 132 127 144 180 190 158 132 125 132 147 158 165 163 168 169 172 176 178 177 176 174 169 164 161 160 158 159 162 161 164 163 149 108 74 64 64 61 57
87 78 128 196 203 267 314 355 27 106 116 130 161 174 186 149 143 130 126 141 163 174 173 168 166 166 167 173 182 179 178 177 173 170 169 161 155 157 161 169 177 175 159 120 78 66 68 64 57
81 123 204 213 201 241 305 279 188 114 120 130 100 104 129 144 157 163 172 178 186 188 186 178 176 169 169 178 178 172 172 173 168 166 162 152 154 160 163 187 191 183 163 113 66 53 64 68 63
116 171 223 249 240 263 301 303 167 142 190 201 183 162 151 161 172 183 189 190 194 190 190 187 183 176 174 173 165 163 161 161 162 163 159 156 158 163 162 179 226 72 86 56 35 41 53 69 83
107 237 219 270 293 294 276 294 125 187 239 232 182 164 164 174 185 192 195 197 190 183 193 188 186 183 183 176 168 165 162 164 166 168 166 160 160 167 172 181 200 124 75 42 11 14 20 78 112
131 276 264 294 309 287 285 281 272 285 309 190 152 164 176 186 194 200 201 197 189 191 195 190 186 186 184 180 177 174 175 175 175 173 176 174 171 180 185 193 200 200 183 193 308 332 337 131 139
261 291 323 344 348 346 313 301 17 336 334 137 159 181 190 196 199 200 202 200 199 199 196 190 188 188 184 187 187 183 182 180 177 181 185 186 187 186 187 196 204 210 197 197 225 262 130 133 135
301 12 22 16 360 348 338 344 33 326 342 151 182 195 204 213 211 213 213 211 207 203 197 192 191 187 188 191 193 188 186 182 183 189 192 194 197 198 195 200 213 214 191 179 172 114 105 113 121
38 49 4 337 4 347 24 295 325 349 16 3 278 245 230 228 226 225 223 221 215 206 200 199 197 191 192 193 193 189 186 187 190 191 194 200 204 205 199 205 222 215 181 165 157 139 120 131 141
34 38 324 313 7 7 35 285 311 355 15 356 334 305 273 255 243 234 225 223 218 211 203 200 200 192 193 191 189 189 183 192 193 191 195 202 206 207 201 210 223 209 178 172 174 156 151 160 160
256 253 271 283 318 6 336 288 322 358 12 356 341 327 311 287 264 250 233 224 219 213 206 203 201 194 184 178 173 179 190 199 194 195 200 201 205 205 202 208 218 199 189 189 178 164 148 146 151
187 216 260 265 283 324 286 301 335 3 20 7 354 341 329 310 289 275 250 229 220 212 207 204 199 192 178 176 180 186 201 200 203 204 203 202 201 200 199 206 204 194 201 202 178 155 148 131 131
196 245 267 284 331 302 303 314 1 30 29 13 3 351 338 328 322 303 273 240 221 215 208 203 199 191 185 187 179 167 160 184 203 204 201 203 199 195 201 199 198 196 197 193 181 161 153 153 159
251 225 245 262 346 26 348 335 7 359 7 9 6 354 345 339 328 317 298 256 228 217 208 199 193 183 175 164 144 118 108 105 151 197 207 203 198 197 200 197 195 194 192 196 191 179 167 167 181
279 272 246 240 18 302 25 295 321 340 346 1 359 355 349 343 337 329 319 291 243 219 198 183 167 153 147 147 161 169 179 197 204 193 195 193 193 197 203 201 196 196 194 196 196 186 178 165 175
284 333 9 163 166 304 339 205 306 349 356 348 346 347 347 345 344 347 348 345 360 104 122 122 111 109 118 132 151 177 204 213 162 151 179 190 195 199 202 203 197 199 199 200 194 187 186 182 178
350 24 45 47 82 250 242 176 322 1 342 332 337 341 343 345 349 355 4 25 47 65 85 97 99 91 94 109 146 207 207 191 168 174 180 186 192 209 209 201 201 201 200 201 199 194 192 194 188
30 45 8 349 6 247 271 134 85 350 337 329 330 333 337 343 350 357 7 22 44 59 70 80 87 88 91 137 194 209 197 187 183 176 181 175 178 207 217 201 202 202 203 199 192 193 199 196 196
353 76 160 247 249 285 350 169 156 8 338 332 330 332 338 346 350 355 7 20 35 54 63 68 73 90 125 176 191 181 175 171 166 168 166 174 186 201 196 186 191 198 195 190 187 194 199 200 206
10 4 312 224 271 261 282 53 352 357 354 350 349 348 343 343 347 353 5 24 39 48 60 65 76 107 160 170 152 143 145 144 150 149 145 153 164 165 144 138 146 160 172 180 177 193 199 197 206
44 2 36 35 294 265 302 37 357 347 344 343 346 344 339 340 347 352 358 16 36 55 51 47 58 125 142 128 116 117 121 129 131 125 125 133 131 117 116 110 111 108 118 143 161 177 195 198 204
1 15 12 327 239 229 254 55 11 343 336 340 342 344 342 342 346 352 3 18 26 42 46 17 345 92 105 105 100 97 96 104 106 105 120 133 129 133 132 133 129 121 116 124 142 162 173 190 201
46 20 3 339 312 306 193 48 5 346 345 352 351 351 351 351 357 7 17 29 29 29 25 354 310 100 116 115 99 97 99 100 100 101 122 144 151 155 159 154 152 152 148 146 150 164 176 184 198
Height
1490 1489 1489 1490 1493 1507 1509 1503 1498 1495 1495 1495 1495 1495 1497 1500 1503 1507 1504 1504 1507 1509 1512 1515 1518 1520 1522 1524 1525 1527 1528 1529 1530 1531 1531 1532 1533 1534 1534 1535 1535 1536 1536 1537 1537 1538 1539 1539 1540
1490 1490 1491 1491 1505 1520 1513 1501 1499 1495 1495 1496 1496 1497 1498 1500 1500 1501 1503 1505 1508 1510 1513 1515 1518 1520 1522 1524 1526 1527 1528 1529 1530 1531 1532 1533 1534 1534 1535 1536 1536 1537 1537 1538 1538 1539 1539 1540 1541
1491 1491 1492 1496 1508 1516 1508 1499 1497 1495 1496 1496 1497 1498 1499 1501 1501 1503 1504 1506 1508 1511 1513 1516 1518 1521 1523 1525 1526 1527 1529 1530 1531 1532 1533 1534 1534 1535 1536 1536 1537 1538 1538 1539 1539 1540 1540 1541 1542
1492 1493 1494 1502 1507 1505 1501 1496 1496 1496 1497 1497 1498 1500 1501 1503 1503 1504 1505 1507 1509 1511 1514 1516 1519 1521 1523 1525 1526 1527 1529 1530 1531 1532 1533 1534 1535 1536 1536 1537 1538 1539 1539 1540 1540 1541 1541 1542 1543
1492 1493 1501 1510 1508 1501 1496 1495 1495 1496 1497 1497 1498 1500 1502 1503 1504 1505 1506 1508 1510 1512 1514 1517 1519 1521 1523 1525 1526 1528 1529 1530 1531 1533 1534 1534 1535 1536 1537 1538 1539 1539 1540 1541 1541 1542 1542 1543 1544
1493 1495 1511 1516 1509 1500 1495 1494 1495 1496 1497 1498 1499 1501 1503 1504 1504 1506 1508 1509 1511 1512 1514 1517 1519 1521 1523 1524 1526 1527 1529 1530 1531 1533 1534 1535 1536 1536 1537 1538 1539 1540 1541 1542 1542 1543 1543 1544 1545
1494 1500 1510 1512 1510 1503 1496 1495 1495 1495 1497 1498 1499 1501 1503 1504 1506 1507 1509 1510 1512 1513 1515 1517 1519 1520 1522 1524 1526 1527 1529 1530 1532 1533 1534 1535 1536 1537 1538 1539 1540 1541 1542 1543 1543 1544 1544 1545 1546
1494 1500 1509 1511 1509 1504 1497 1495 1495 1496 1497 1499 1500 1500 1502 1504 1506 1508 1509 1511 1512 1514 1515 1517 1518 1520 1522 1524 1525 1527 1529 1530 1532 1533 1534 1535 1536 1537 1538 1539 1540 1541 1542 1543 1544 1544 1545 1546 1547
1494 1504 1511 1507 1505 1501 1496 1496 1496 1497 1497 1499 1499 1500 1501 1503 1505 1508 1509 1510 1512 1513 1514 1516 1518 1519 1521 1523 1525 1526 1528 1530 1531 1533 1534 1535 1537 1538 1539 1540 1541 1542 1543 1544 1545 1545 1546 1547 1549
1495 1507 1504 1499 1497 1497 1496 1496 1496 1497 1498 1499 1499 1500 1501 1503 1504 1506 1507 1509 1510 1512 1513 1515 1516 1518 1520 1522 1524 1525 1527 1529 1531 1532 1534 1535 1537 1538 1539 1540 1541 1542 1543 1544 1545 1546 1547 1548 1549
1495 1500 1497 1496 1496 1496 1496 1495 1495 1496 1498 1496 1495 1497 1500 1501 1503 1505 1506 1508 1509 1511 1513 1514 1515 1517 1519 1521 1523 1524 1526 1528 1530 1532 1533 1535 1536 1537 1539 1540 1541 1543 1544 1545 1546 1548 1549 1550 1550
1497 1497 1496 1496 1496 1496 1496 1495 1495 1495 1495 1494 1494 1495 1497 1499 1500 1502 1504 1506 1509 1510 1512 1514 1515 1516 1518 1520 1522 1523 1525 1527 1529 1531 1532 1534 1536 1537 1539 1540 1542 1543 1545 1546 1548 1549 1550 1550 1551
1498 1498 1497 1497 1496 1496 1495 1495 1495 1494 1493 1492 1493 1495 1496 1497 1498 1501 1503 1506 1508 1509 1511 1513 1514 1515 1517 1519 1520 1522 1524 1526 1528 1530 1532 1534 1535 1537 1539 1540 1542 1544 1545 1547 1548 1549 1550 1551 1551
1498 1497 1497 1497 1496 1496 1495 1494 1495 1494 1492 1491 1492 1493 1495 1496 1498 1500 1502 1503 1505 1507 1509 1511 1513 1515 1516 1518 1519 1521 1523 1525 1527 1529 1531 1533 1535 1537 1538 1540 1542 1544 1545 1547 1548 1549 1550 1551 1551
1497 1498 1498 1498 1497 1496 1495 1496 1497 1496 1493 1492 1492 1493 1495 1496 1498 1499 1500 1502 1504 1506 1508 1510 1512 1513 1515 1517 1518 1520 1522 1524 1525 1527 1530 1532 1534 1536 1538 1539 1541 1543 1545 1547 1548 1549 1550 1551 1551
1498 1503 1507 1501 1498 1497 1499 1504 1497 1496 1494 1493 1494 1494 1495 1495 1496 1497 1499 1501 1503 1505 1507 1508 1510 1511 1513 1515 1517 1519 1521 1523 1524 1526 1528 1531 1533 1535 1537 1538 1540 1543 1544 1546 1547 1548 1549 1550 1551
1508 1513 1511 1505 1499 1499 1500 1503 1497 1496 1495 1495 1494 1494 1494 1494 1495 1495 1497 1498 1500 1502 1504 1506 1508 1509 1511 1514 1516 1518 1520 1522 1523 1525 1527 1529 1531 1533 1535 1537 1539 1541 1543 1544 1546 1547 1548 1549 1550
1513 1512 1511 1509 1501 1501 1502 1502 1499 1498 1497 1496 1495 1494 1492 1491 1491 1492 1493 1494 1496 1498 1501 1503 1505 1507 1509 1512 1514 1516 1518 1520 1522 1524 1525 1527 1529 1531 1532 1534 1536 1538 1540 1542 1543 1545 1546 1547 1549
1506 1509 1512 1507 1501 1502 1503 1504 1502 1499 1498 1497 1496 1493 1491 1489 1487 1487 1488 1489 1491 1493 1495 1497 1500 1503 1505 1508 1510 1513 1515 1518 1520 1522 1524 1525 1527 1528 1529 1531 1533 1535 1537 1538 1540 1542 1544 1545 1546
1506 1510 1511 1506 1501 1502 1505 1506 1503 1502 1501 1501 1498 1494 1490 1485 1482 1481 1481 1482 1483 1485 1487 1491 1494 1498 1501 1504 1507 1510 1513 1515 1518 1520 1522 1523 1524 1525 1526 1528 1529 1531 1533 1534 1536 1538 1540 1542 1544
1508 1510 1509 1508 1505 1504 1507 1509 1507 1504 1502 1500 1497 1494 1489 1485 1479 1476 1475 1475 1476 1478 1480 1483 1487 1491 1496 1500 1504 1507 1509 1512 1515 1517 1519 1520 1521 1522 1523 1524 1526 1527 1528 1530 1532 1534 1536 1538 1540
1513 1505 1505 1506 1512 1517 1513 1523 1511 1509 1505 1500 1497 1493 1489 1483 1478 1474 1471 1470 1470 1472 1474 1478 1482 1486 1491 1496 1500 1504 1507 1510 1512 1514 1515 1517 1518 1519 1520 1521 1522 1523 1524 1526 1527 1529 1531 1533 1535
1509 1505 1505 1507 1512 1518 1517 1522 1519 1512 1510 1504 1500 1496 1490 1484 1478 1473 1469 1467 1468 1469 1471 1474 1478 1483 1487 1493 1497 1501 1504 1507 1509 1510 1512 1513 1514 1515 1516 1517 1518 1519 1520 1521 1523 1524 1526 1528 1529
1508 1508 1510 1516 1519 1526 1517 1523 1524 1518 1515 1509 1502 1497 1492 1485 1479 1475 1471 1468 1467 1468 1470 1472 1476 1481 1486 1490 1495 1499 1503 1505 1506 1507 1509 1510 1511 1512 1513 1514 1515 1515 1516 1517 1518 1520 1521 1522 1524
1513 1520 1529 1529 1533 1528 1516 1521 1524 1517 1514 1511 1505 1499 1493 1487 1481 1477 1474 1472 1470 1470 1472 1474 1477 1482 1486 1490 1494 1498 1502 1504 1505 1506 1507 1508 1509 1510 1511 1511 1512 1512 1513 1514 1514 1515 1516 1518 1519
1521 1524 1535 1539 1536 1528 1517 1522 1521 1516 1514 1510 1505 1499 1493 1488 1483 1479 1477 1476 1475 1474 1475 1477 1479 1484 1487 1492 1495 1497 1500 1502 1503 1505 1505 1506 1507 1508 1508 1509 1509 1509 1509 1510 1511 1511 1512 1513 1514
1526 1528 1528 1533 1530 1530 1525 1521 1517 1515 1512 1508 1503 1498 1493 1489 1484 1481 1479 1478 1477 1477 1477 1479 1482 1486 1490 1493 1496 1497 1499 1501 1502 1504 1504 1505 1506 1506 1507 1506 1507 1506 1507 1507 1508 1508 1508 1509 1510
1528 1529 1535 1537 1538 1537 1529 1526 1529 1522 1517 1511 1505 1501 1495 1489 1485 1482 1480 1479 1478 1479 1479 1482 1486 1489 1491 1493 1495 1497 1498 1500 1502 1503 1504 1505 1505 1505 1505 1505 1505 1505 1505 1505 1505 1505 1505 1506 1506
1535 1535 1537 1538 1537 1538 1536 1535 1529 1527 1522 1515 1509 1504 1497 1491 1487 1483 1481 1480 1480 1480 1482 1485 1487 1489 1491 1493 1495 1496 1498 1500 1502 1503 1504 1504 1504 1504 1504 1504 1504 1504 1504 1503 1503 1503 1503 1503 1504
1537 1540 1541 1543 1540 1536 1537 1540 1530 1528 1523 1517 1511 1505 1499 1493 1488 1485 1483 1482 1483 1483 1484 1486 1488 1489 1491 1493 1495 1496 1498 1499 1500 1502 1503 1503 1503 1503 1503 1503 1503 1503 1503 1503 1502 1502 1502 1502 1502